Joplin, MO

4:18 PM CDT on October 23, 2017 (GMT -0500)
Joplin Regional

Weather History for KJLN - May, 2014

Change the Weather History Date:

Tuesday, May 6, 2014

  Actual Average Record
Temperature  
Mean Temperature 77 °F 64 °F  
Max Temperature 89 °F 75 °F 90 °F (1952)
Min Temperature 65 °F 53 °F 33 °F (1992)
Degree Days  
Heating Degree Days 0 3  
Month to date heating degree days 31 22  
Since 1 July heating degree days 4809 4025  
Cooling Degree Days 12 3  
Month to date cooling degree days 40 14  
Year to date cooling degree days 63 68  
Growing Degree Days 27 (Base 50)    
Moisture  
Dew Point 59 °F    
Average Humidity 54    
Maximum Humidity 67    
Minimum Humidity 40    
Precipitation  
Precipitation 0.00 in 0.20 in 3.02 in (1973)
Month to date precipitation 0.00 1.17  
Year to date precipitation 3.98 13.41  
Sea Level Pressure  
Sea Level Pressure 29.64 in    
Wind  
Wind Speed 17 mph (South)    
Max Wind Speed 26 mph    
Max Gust Speed 34 mph    
Visibility 10 miles    
Events      
T = Trace of Precipitation, MM = Missing Value Source: NWS Daily Summary

Daily Weather History Graph

Daily Weather History Graph

Search for Another Location

Airport or City:

Trip Planner

Search our weather history database for the weather conditions in past years. The results will help you decide how hot, cold, wet, or windy it might be!

Date:

Astronomy

May. 06, 2014 Rise Set
Actual Time 6:17 AM CDT 8:11 PM CDT
Civil Twilight 5:49 AM CDT 8:40 PM CDT
Nautical Twilight 5:15 AM CDT 9:14 PM CDT
Astronomical Twilight 4:38 AM CDT 9:51 PM CDT
Moon 12:33 PM CDT (5/6) 1:32 AM CDT (5/6)
Length of Visible Light 14h 50m
Length of Day
13h 53m
Waxing Crescent, 46% of the Moon is Illuminated
May 6
Waxing Crescent
May 6
First Quarter
May 14
Full
May 21
Last Quarter
May 28
New

Hourly Weather History & Observations

Time (CDT) Temp. Heat Index Dew Point Humidity Pressure Visibility Wind Dir Wind Speed Gust Speed Precip Events Conditions
12:53 AM 73.0 °F - 55.9 °F 55% 29.70 in 10.0 mi SSW 18.4 mph 26.5 mph N/A   Clear
1:53 AM 71.1 °F - 55.9 °F 59% 29.70 in 10.0 mi South 15.0 mph - N/A   Clear
2:53 AM 69.1 °F - 55.0 °F 61% 29.69 in 10.0 mi South 13.8 mph - N/A   Clear
6:53 AM 66.0 °F - 53.1 °F 63% 29.68 in 10.0 mi South 10.4 mph - N/A   Clear
7:53 AM 68.0 °F - 55.0 °F 63% 29.68 in 10.0 mi South 12.7 mph - N/A   Clear
9:53 AM 75.9 °F - 57.0 °F 52% 29.66 in 10.0 mi South 20.7 mph 27.6 mph N/A   Clear
10:53 AM 79.0 °F - 59.0 °F 50% 29.65 in 10.0 mi South 16.1 mph - N/A   Clear
11:53 AM 82.0 °F 82.1 °F 59.0 °F 45% 29.65 in 10.0 mi South 18.4 mph - N/A   Clear
12:53 PM 86.0 °F 85.7 °F 60.1 °F 41% 29.64 in 10.0 mi SSW 12.7 mph 20.7 mph N/A   Clear
1:53 PM 84.9 °F 84.8 °F 60.1 °F 43% 29.62 in 10.0 mi South 12.7 mph 23.0 mph N/A   Clear
2:53 PM 87.1 °F 87.0 °F 61.0 °F 41% 29.61 in 10.0 mi South 13.8 mph 26.5 mph N/A   Clear
3:53 PM 88.0 °F 87.9 °F 61.0 °F 40% 29.59 in 10.0 mi South 19.6 mph 25.3 mph N/A   Clear
4:53 PM 87.1 °F 86.7 °F 60.1 °F 40% 29.59 in 10.0 mi South 23.0 mph 29.9 mph N/A   Clear
5:53 PM 86.0 °F 85.7 °F 60.1 °F 41% 29.58 in 10.0 mi South 18.4 mph - N/A   Clear
6:53 PM 82.9 °F 83.2 °F 60.1 °F 46% 29.58 in 10.0 mi South 21.9 mph 26.5 mph N/A   Clear
7:53 PM 80.1 °F 81.1 °F 61.0 °F 52% 29.57 in 10.0 mi SSE 17.3 mph 26.5 mph N/A   Clear
8:53 PM 78.1 °F - 62.1 °F 58% 29.63 in 10.0 mi South 16.1 mph - N/A   Clear
9:53 PM 77.0 °F - 62.1 °F 60% 29.65 in 10.0 mi South 21.9 mph 28.8 mph N/A   Clear
10:53 PM 75.0 °F - 61.0 °F 62% 29.65 in 10.0 mi South 20.7 mph 27.6 mph N/A   Clear
11:53 PM 73.9 °F - 61.0 °F 64% 29.65 in 10.0 mi South 21.9 mph 31.1 mph N/A   Clear